Location: Beddau
(51.5575°N, 3.3561°W)
Time: 01:38:58
(UTC+00:00)

Cosmos 1980 Rocket - Pass Details

Date: 03 March 2021
Orbit: 828 x 851 km, 71.0° (Epoch: 13 April)

Event Time Altitude Azimuth Distance (km) Brightness Sun altitude
Rises 18:52:47 0° 232° (SW) 3,393 6.2 -9.4°
Reaches altitude 10° 18:55:21 10° 239° (WSW) 2,465 5.6 -9.8°
Maximum altitude 19:00:44 44° 311° (NW) 1,170 3.4 -10.6°
Drops below altitude 10° 19:06:11 10° 22° (NNE) 2,488 4.5 -11.5°
Sets 19:08:47 0° 30° (NNE) 3,429 5.1 -11.9°
